Grosse Ile, MI

9:19 AM EDT on August 22, 2017 (GMT -0400)
Grosse Ile Municipal

Weather History for KONZ - September, 2012

Change the Weather History Date:

Monday, September 10, 2012

  Actual Average (KDTW) Record (KDTW)
Temperature  
Mean Temperature 61 °F -  
Max Temperature 71 °F 76 °F 94 °F (1983)
Min Temperature 51 °F 54 °F 40 °F (1883)
Degree Days  
Heating Degree Days 4    
Growing Degree Days 11 (Base 50)    
Moisture  
Dew Point 50 °F    
Average Humidity 64    
Maximum Humidity 88    
Minimum Humidity 40    
Precipitation  
Precipitation 0.00 in - - ()
Sea Level Pressure  
Sea Level Pressure 30.17 in    
Wind  
Wind Speed 2 mph (South)    
Max Wind Speed 10 mph    
Max Gust Speed -    
Visibility 10 miles    
Events      
Averages and records for this station are not official NWS values.
T = Trace of Precipitation, MM = Missing Value Source: NWS Daily Summary

Daily Weather History Graph

Daily Weather History Graph

Search for Another Location

Airport or City:

Trip Planner

Search our weather history database for the weather conditions in past years. The results will help you decide how hot, cold, wet, or windy it might be!

Date:

Astronomy

Sep. 10, 2012 Rise Set
Actual Time 7:07 AM EDT 7:50 PM EDT
Civil Twilight 6:39 AM EDT 8:18 PM EDT
Nautical Twilight 6:06 AM EDT 8:51 PM EDT
Astronomical Twilight 5:31 AM EDT 9:26 PM EDT
Moon 1:23 AM EDT (9/10) 4:23 PM EDT (9/10)
Length of Visible Light 13h 38m
Length of Day
12h 42m
Waning Crescent, 30% of the Moon is Illuminated
Sep 10
Waning Crescent
Sep 15
New
Sep 22
First Quarter
Sep 29
Full
Oct 8
Last Quarter

Hourly Weather History & Observations

Time (EDT) Temp. Dew Point Humidity Pressure Visibility Wind Dir Wind Speed Gust Speed Precip Events Conditions
12:14 AM 57.2 °F 48.2 °F 72% 30.09 in 10.0 mi Calm Calm - N/A   Clear
12:34 AM 55.4 °F 50.0 °F 82% 30.09 in 10.0 mi Calm Calm - N/A   Clear
12:54 AM 55.4 °F 50.0 °F 82% 30.09 in 10.0 mi Calm Calm - N/A   Clear
1:14 AM 55.4 °F 50.0 °F 82% 30.10 in 10.0 mi Calm Calm - N/A   Clear
1:34 AM 55.4 °F 50.0 °F 82% 30.10 in 10.0 mi Calm Calm - N/A   Clear
1:54 AM 53.6 °F 50.0 °F 88% 30.10 in 10.0 mi Calm Calm - N/A   Clear
2:14 AM 53.6 °F 50.0 °F 88% 30.11 in 10.0 mi Calm Calm - N/A   Clear
2:34 AM 55.4 °F 50.0 °F 82% 30.11 in 10.0 mi Calm Calm - N/A   Clear
2:54 AM 53.6 °F 48.2 °F 82% 30.11 in 10.0 mi Calm Calm - N/A   Clear
3:14 AM 55.4 °F 50.0 °F 82% 30.11 in 10.0 mi Calm Calm - N/A   Clear
3:34 AM 53.6 °F 48.2 °F 82% 30.12 in 10.0 mi Calm Calm - N/A   Clear
3:54 AM 53.6 °F 48.2 °F 82% 30.13 in 10.0 mi Calm Calm - N/A   Clear
4:14 AM 53.6 °F 48.2 °F 82% 30.13 in 10.0 mi NW 3.5 mph - N/A   Clear
4:34 AM 53.6 °F 48.2 °F 82% 30.13 in 10.0 mi Calm Calm - N/A   Clear
4:54 AM 51.8 °F 48.2 °F 88% 30.14 in 10.0 mi Calm Calm - N/A   Clear
5:14 AM 53.6 °F 48.2 °F 82% 30.14 in 10.0 mi Calm Calm - N/A   Clear
5:34 AM 51.8 °F 48.2 °F 88% 30.15 in 10.0 mi Calm Calm - N/A   Scattered Clouds
5:54 AM 53.6 °F 48.2 °F 82% 30.15 in 10.0 mi Calm Calm - N/A   Clear
6:15 AM 53.6 °F 48.2 °F 82% 30.15 in 10.0 mi Calm Calm - N/A   Clear
6:34 AM 53.6 °F 48.2 °F 82% 30.16 in 10.0 mi Calm Calm - N/A   Clear
6:54 AM 51.8 °F 46.4 °F 82% 30.17 in 10.0 mi NW 3.5 mph - N/A   Clear
7:14 AM 51.8 °F 48.2 °F 88% 30.17 in 10.0 mi Calm Calm - N/A   Clear
7:34 AM 51.8 °F 48.2 °F 88% 30.18 in 10.0 mi Calm Calm - N/A   Clear
7:55 AM 53.6 °F 48.2 °F 82% 30.19 in 10.0 mi Calm Calm - N/A   Clear
8:14 AM 55.4 °F 50.0 °F 82% 30.21 in 10.0 mi Calm Calm - N/A   Clear
8:34 AM 57.2 °F 51.8 °F 82% 30.21 in 10.0 mi Calm Calm - N/A   Clear
8:55 AM 60.8 °F 51.8 °F 72% 30.21 in 10.0 mi NW 4.6 mph - N/A   Clear
9:14 AM 60.8 °F 51.8 °F 72% 30.21 in 10.0 mi Calm Calm - N/A   Clear
9:34 AM 62.6 °F 51.8 °F 68% 30.22 in 10.0 mi Calm Calm - N/A   Clear
9:54 AM 64.4 °F 48.2 °F 56% 30.22 in 10.0 mi Calm Calm - N/A   Clear
10:14 AM 66.2 °F 48.2 °F 52% 30.22 in 10.0 mi Calm Calm - N/A   Clear
10:34 AM 66.2 °F 48.2 °F 52% 30.22 in 10.0 mi Calm Calm - N/A   Clear
10:54 AM 68.0 °F 46.4 °F 46% 30.22 in 10.0 mi Calm Calm - N/A   Clear
11:14 AM 68.0 °F 46.4 °F 46% 30.23 in 10.0 mi NNE 3.5 mph - N/A   Clear
11:34 AM 69.8 °F 48.2 °F 46% 30.22 in 10.0 mi Calm Calm - N/A   Clear
11:54 AM 69.8 °F 46.4 °F 43% 30.22 in 10.0 mi Calm Calm - N/A   Clear
12:14 PM 69.8 °F 44.6 °F 40% 30.22 in 10.0 mi Calm Calm - N/A   Clear
12:34 PM 69.8 °F 46.4 °F 43% 30.22 in 10.0 mi Calm Calm - N/A   Clear
12:54 PM 71.6 °F 48.2 °F 43% 30.21 in 10.0 mi SE 3.5 mph - N/A   Clear
1:14 PM 71.6 °F 48.2 °F 43% 30.21 in 10.0 mi SE 3.5 mph - N/A   Clear
1:34 PM 71.6 °F 46.4 °F 41% 30.21 in 10.0 mi NE 4.6 mph - N/A   Clear
1:54 PM 71.6 °F 48.2 °F 43% 30.20 in 10.0 mi SSE 3.5 mph - N/A   Clear
2:15 PM 71.6 °F 46.4 °F 41% 30.20 in 10.0 mi Calm Calm - N/A   Clear
2:34 PM 71.6 °F 46.4 °F 41% 30.19 in 10.0 mi South 10.4 mph - N/A   Clear
2:54 PM 71.6 °F 48.2 °F 43% 30.19 in 10.0 mi SSE 6.9 mph - N/A   Clear
3:14 PM 71.6 °F 48.2 °F 43% 30.19 in 10.0 mi SSE 6.9 mph - N/A   Clear
3:34 PM 71.6 °F 50.0 °F 46% 30.18 in 10.0 mi South 8.1 mph - N/A   Clear
3:54 PM 71.6 °F 50.0 °F 46% 30.17 in 10.0 mi South 9.2 mph - N/A   Clear
4:14 PM 71.6 °F 50.0 °F 46% 30.17 in 10.0 mi South 9.2 mph - N/A   Clear
4:34 PM 71.6 °F 48.2 °F 43% 30.17 in 10.0 mi South 8.1 mph - N/A   Clear
4:54 PM 71.6 °F 48.2 °F 43% 30.17 in 10.0 mi South 8.1 mph - N/A   Clear
5:14 PM 71.6 °F 48.2 °F 43% 30.16 in 10.0 mi South 8.1 mph - N/A   Clear
5:34 PM 71.6 °F 50.0 °F 46% 30.16 in 10.0 mi SSE 6.9 mph - N/A   Clear
5:54 PM 71.6 °F 51.8 °F 50% 30.16 in 10.0 mi South 6.9 mph - N/A   Clear
6:14 PM 71.6 °F 51.8 °F 50% 30.16 in 10.0 mi South 9.2 mph - N/A   Clear
6:34 PM 69.8 °F 51.8 °F 53% 30.16 in 10.0 mi SSE 5.8 mph - N/A   Clear
6:54 PM 69.8 °F 51.8 °F 53% 30.16 in 10.0 mi South 5.8 mph - N/A   Clear
7:14 PM 69.8 °F 51.8 °F 53% 30.15 in 10.0 mi South 6.9 mph - N/A   Clear
7:35 PM 66.2 °F 53.6 °F 64% 30.15 in 10.0 mi South 6.9 mph - N/A   Clear
7:54 PM 66.2 °F 53.6 °F 64% 30.15 in 10.0 mi South 4.6 mph - N/A   Clear
8:14 PM 66.2 °F 53.6 °F 64% 30.15 in 10.0 mi South 5.8 mph - N/A   Clear
8:35 PM 66.2 °F 53.6 °F 64% 30.15 in 10.0 mi South 5.8 mph - N/A   Clear
8:54 PM 66.2 °F 53.6 °F 64% 30.15 in 10.0 mi SSW 4.6 mph - N/A   Clear
9:14 PM 66.2 °F 53.6 °F 64% 30.16 in 10.0 mi SSW 4.6 mph - N/A   Clear
9:34 PM 66.2 °F 53.6 °F 64% 30.16 in 10.0 mi South 8.1 mph - N/A   Clear
9:54 PM 66.2 °F 53.6 °F 64% 30.16 in 10.0 mi SSW 5.8 mph - N/A   Clear
10:14 PM 66.2 °F 53.6 °F 64% 30.16 in 10.0 mi South 6.9 mph - N/A   Clear
10:34 PM 66.2 °F 53.6 °F 64% 30.16 in 10.0 mi South 8.1 mph - N/A   Clear
10:55 PM 66.2 °F 53.6 °F 64% 30.16 in 10.0 mi SSW 5.8 mph - N/A   Clear
11:14 PM 66.2 °F 55.4 °F 68% 30.16 in 10.0 mi SW 4.6 mph - N/A   Clear
11:34 PM 66.2 °F 53.6 °F 64% 30.16 in 10.0 mi SW 4.6 mph - N/A   Clear
11:55 PM 64.4 °F 53.6 °F 68% 30.17 in 10.0 mi SW 4.6 mph - N/A   Clear